• In Uzbekistan
  • List of Countries
  • For 7 days
  • Water Temperature
  • Weather Map
  • Weather Widgets
  • user-avatar
    Login

    Hourly Weather Eldoret

    Today, 4 June, Thursday

    Time Temperature Precipitation Wind Pressure Humidity
    00:00 +15°C° 0.5 mm 1 mps 597 mmHg 96%
    01:00 +15°C° 0.5 mm 1 mps 596 mmHg 96%
    02:00 +14°C° 0 mm 1 mps 596 mmHg 95%
    03:00 +15°C° 0.2 mm 1 mps 596 mmHg 95%
    04:00 +15°C° 0.2 mm 1 mps 596 mmHg 95%
    05:00 +15°C° 0.2 mm 1 mps 597 mmHg 95%
    06:00 +16°C° 0.1 mm 1 mps 597 mmHg 91%
    07:00 +18°C° 0.1 mm 1 mps 598 mmHg 88%
    08:00 +19°C° 0 mm 1 mps 599 mmHg 83%
    09:00 +21°C° 0.6 mm 1 mps 599 mmHg 77%
    10:00 +22°C° 0.6 mm 1 mps 600 mmHg 72%
    11:00 +23°C° 0.6 mm 1 mps 600 mmHg 66%
    12:00 +23°C° 1.2 mm 1 mps 599 mmHg 71%
    13:00 +22°C° 1.2 mm 1 mps 598 mmHg 76%
    14:00 +22°C° 1.2 mm 1 mps 598 mmHg 81%
    15:00 +21°C° 1.2 mm 1 mps 597 mmHg 85%
    16:00 +20°C° 1.2 mm 1 mps 597 mmHg 89%
    17:00 +19°C° 1.2 mm 1 mps 597 mmHg 93%
    18:00 +18°C° 0.7 mm 1 mps 597 mmHg 93%
    19:00 +16°C° 0.7 mm 1 mps 597 mmHg 93%
    20:00 +14°C° 0.7 mm 0 mps 597 mmHg 94%
    21:00 +14°C° 0.2 mm 1 mps 597 mmHg 94%
    22:00 +14°C° 0.2 mm 1 mps 597 mmHg 94%
    23:00 +14°C° 0.2 mm 1 mps 597 mmHg 94%

    Tomorrow, 5 June, Friday

    Time Temperature Precipitation Wind Pressure Humidity
    00:00 +14°C° 0.5 mm 1 mps 597 mmHg 94%
    01:00 +14°C° 0.5 mm 1 mps 597 mmHg 95%
    02:00 +14°C° 0.5 mm 1 mps 596 mmHg 95%
    03:00 +14°C° 0.4 mm 1 mps 597 mmHg 95%
    04:00 +14°C° 0.4 mm 1 mps 597 mmHg 95%
    05:00 +14°C° 0.4 mm 1 mps 597 mmHg 95%
    06:00 +15°C° 0 mm 1 mps 598 mmHg 90%
    07:00 +16°C° 0 mm 0 mps 599 mmHg 86%
    08:00 +18°C° 0 mm 0 mps 600 mmHg 81%
    09:00 +21°C° 0.6 mm 1 mps 600 mmHg 77%
    10:00 +22°C° 0.6 mm 1 mps 600 mmHg 74%
    11:00 +23°C° 0.6 mm 1 mps 600 mmHg 71%
    12:00 +22°C° 1.4 mm 1 mps 599 mmHg 73%
    13:00 +22°C° 1.4 mm 1 mps 599 mmHg 76%
    14:00 +22°C° 1.4 mm 1 mps 598 mmHg 79%
    15:00 +21°C° 2 mm 1 mps 598 mmHg 84%
    16:00 +20°C° 2 mm 1 mps 598 mmHg 88%
    17:00 +17°C° 2 mm 0 mps 597 mmHg 92%
    18:00 +18°C° 1.3 mm 1 mps 598 mmHg 93%
    19:00 +16°C° 1.3 mm 1 mps 598 mmHg 93%
    20:00 +15°C° 1.3 mm 1 mps 598 mmHg 94%
    21:00 +15°C° 0.7 mm 1 mps 598 mmHg 94%
    22:00 +15°C° 0.7 mm 1 mps 598 mmHg 94%
    23:00 +14°C° 0.7 mm 0 mps 598 mmHg 94%

    Day after tomorrow, 6 June, Saturday

    Time Temperature Precipitation Wind Pressure Humidity
    00:00 +14°C° 0 mm 0 mps 597 mmHg 94%
    01:00 +14°C° 0 mm 0 mps 597 mmHg 93%
    02:00 +13°C° 0 mm 0 mps 597 mmHg 93%
    03:00 +14°C° 0 mm 1 mps 597 mmHg 93%
    04:00 +14°C° 0 mm 1 mps 597 mmHg 93%
    05:00 +14°C° 0 mm 1 mps 597 mmHg 93%
    06:00 +16°C° 0 mm 1 mps 598 mmHg 89%
    07:00 +16°C° 0 mm 0 mps 599 mmHg 85%
    08:00 +18°C° 0 mm 0 mps 600 mmHg 81%
    09:00 +20°C° 1 mm 1 mps 600 mmHg 81%
    10:00 +21°C° 1 mm 1 mps 599 mmHg 81%
    11:00 +21°C° 1 mm 1 mps 599 mmHg 82%
    12:00 +21°C° 1.7 mm 1 mps 599 mmHg 83%
    13:00 +21°C° 1.7 mm 1 mps 598 mmHg 84%
    14:00 +21°C° 1.7 mm 1 mps 598 mmHg 85%
    15:00 +20°C° 1.7 mm 1 mps 597 mmHg 88%
    16:00 +19°C° 1.7 mm 1 mps 597 mmHg 92%
    17:00 +18°C° 1.7 mm 1 mps 597 mmHg 95%
    18:00 +16°C° 3.1 mm 1 mps 597 mmHg 96%
    19:00 +16°C° 3.1 mm 1 mps 597 mmHg 97%
    20:00 +15°C° 3.1 mm 1 mps 598 mmHg 97%
    21:00 +15°C° 5.2 mm 1 mps 597 mmHg 97%
    22:00 +14°C° 5.2 mm 1 mps 597 mmHg 97%
    23:00 +14°C° 5.2 mm 1 mps 597 mmHg 97%

    7 June, Sunday

    Time Temperature Precipitation Wind Pressure Humidity
    00:00 +14°C° 2.8 mm 1 mps 597 mmHg 97%
    01:00 +14°C° 2.8 mm 1 mps 596 mmHg 97%
    02:00 +14°C° 2.8 mm 1 mps 596 mmHg 97%
    03:00 +14°C° 0.4 mm 1 mps 596 mmHg 96%
    04:00 +14°C° 0.4 mm 1 mps 596 mmHg 95%
    05:00 +14°C° 0.4 mm 1 mps 596 mmHg 94%
    06:00 +15°C° 0 mm 1 mps 597 mmHg 93%
    07:00 +15°C° 0 mm 1 mps 597 mmHg 92%
    08:00 +15°C° 0 mm 1 mps 598 mmHg 90%
    09:00 +16°C° 0.1 mm 1 mps 598 mmHg 87%
    10:00 +18°C° 0.1 mm 1 mps 598 mmHg 83%
    11:00 +19°C° 0.1 mm 1 mps 598 mmHg 79%
    12:00 +20°C° 0.3 mm 1 mps 598 mmHg 77%
    13:00 +20°C° 0.3 mm 1 mps 598 mmHg 74%
    14:00 +21°C° 0.3 mm 1 mps 597 mmHg 72%
    15:00 +20°C° 0.2 mm 1 mps 597 mmHg 77%
    16:00 +19°C° 0.2 mm 1 mps 597 mmHg 81%
    17:00 +17°C° 0.2 mm 0 mps 597 mmHg 86%
    18:00 +16°C° 0 mm 0 mps 597 mmHg 86%
    19:00 +15°C° 0 mm 0 mps 597 mmHg 87%
    20:00 +14°C° 0 mm 0 mps 597 mmHg 88%
    21:00 +14°C° 0 mm 0 mps 597 mmHg 89%
    22:00 +13°C° 0 mm 0 mps 596 mmHg 89%
    23:00 +13°C° 0 mm 0 mps 596 mmHg 89%

    8 June, Monday

    Time Temperature Precipitation Wind Pressure Humidity
    00:00 +14°C° 0 mm 1 mps 596 mmHg 89%
    01:00 +14°C° 0 mm 1 mps 595 mmHg 88%
    02:00 +14°C° 0 mm 1 mps 595 mmHg 88%
    03:00 +14°C° 0 mm 1 mps 595 mmHg 88%
    04:00 +14°C° 0 mm 1 mps 595 mmHg 88%
    05:00 +14°C° 0 mm 1 mps 596 mmHg 87%
    06:00 +16°C° 0 mm 1 mps 597 mmHg 83%
    07:00 +18°C° 0 mm 1 mps 597 mmHg 79%
    08:00 +18°C° 0 mm 0 mps 598 mmHg 75%
    09:00 +20°C° 0.3 mm 1 mps 598 mmHg 73%
    10:00 +20°C° 0.3 mm 2 mps 598 mmHg 70%
    11:00 +21°C° 0.3 mm 2 mps 598 mmHg 68%
    12:00 +21°C° 1.3 mm 2 mps 598 mmHg 74%
    13:00 +20°C° 1.3 mm 2 mps 597 mmHg 80%
    14:00 +19°C° 1.3 mm 2 mps 596 mmHg 86%
    15:00 +20°C° 0.9 mm 1 mps 596 mmHg 88%
    16:00 +19°C° 0.9 mm 1 mps 596 mmHg 91%
    17:00 +18°C° 0.9 mm 1 mps 596 mmHg 93%
    18:00 +18°C° 1.3 mm 1 mps 596 mmHg 94%
    19:00 +16°C° 1.3 mm 1 mps 596 mmHg 95%
    20:00 +15°C° 1.3 mm 1 mps 596 mmHg 95%
    21:00 +15°C° 1.1 mm 1 mps 596 mmHg 95%
    22:00 +15°C° 1.1 mm 1 mps 596 mmHg 96%
    23:00 +15°C° 1.1 mm 1 mps 596 mmHg 96%

    9 June, Tuesday

    Time Temperature Precipitation Wind Pressure Humidity
    00:00 +14°C° 0.5 mm 1 mps 596 mmHg 96%
    01:00 +14°C° 0.5 mm 1 mps 596 mmHg 96%
    02:00 +14°C° 0.5 mm 2 mps 595 mmHg 96%
    03:00 +14°C° 1.2 mm 2 mps 595 mmHg 96%
    04:00 +14°C° 1.2 mm 2 mps 596 mmHg 96%
    05:00 +14°C° 1.2 mm 2 mps 596 mmHg 96%
    06:00 +14°C° 0.4 mm 2 mps 596 mmHg 96%
    07:00 +14°C° 0.4 mm 2 mps 596 mmHg 95%
    08:00 +15°C° 0.4 mm 2 mps 597 mmHg 94%
    09:00 +15°C° 0.1 mm 2 mps 597 mmHg 92%
    10:00 +16°C° 0.1 mm 2 mps 597 mmHg 90%
    11:00 +17°C° 0.1 mm 2 mps 597 mmHg 87%
    12:00 +19°C° 0.6 mm 1 mps 597 mmHg 81%
    13:00 +21°C° 0.6 mm 1 mps 597 mmHg 76%
    14:00 +22°C° 0.6 mm 1 mps 597 mmHg 70%
    15:00 +21°C° 1.1 mm 1 mps 597 mmHg 77%
    16:00 +20°C° 1.1 mm 1 mps 596 mmHg 84%
    17:00 +19°C° 1.1 mm 1 mps 596 mmHg 92%
    18:00 +18°C° 0.5 mm 1 mps 596 mmHg 93%
    19:00 +16°C° 0.5 mm 1 mps 596 mmHg 94%
    20:00 +14°C° 0.5 mm 1 mps 596 mmHg 95%
    21:00 +14°C° 0.2 mm 1 mps 596 mmHg 95%
    22:00 +14°C° 0.2 mm 1 mps 596 mmHg 95%
    23:00 +14°C° 0.2 mm 1 mps 596 mmHg 96%
    Show more